Regional Weather Roundup
Issued by NWS

Home | Current Version | Previous Version | Graphics & Text | Print | Product List | Glossary On
Versions: 1 2 3 4 5 6 7 8 9 10 11 12 13 14 15 16 17 18 19 20 21 22 23 24 25 26 27 28 29 30 31 32 33 34 35 36 37 38 39 40 41 42 43 44 45 46 47 48 49 50
000
ASUS45 KTFX 021019
RWRMT
MONTANA HOURLY WEATHER ROUNDUP
NATIONAL WEATHER SERVICE GREAT FALLS MT
319 AM MST MON MAR 2 2015

NOTE: "FAIR" INDICATES FEW OR NO CLOUDS BELOW 12000 FEET WITH NO
SIGNIFICANT WEATHER AND/OR OBSTRUCTIONS TO VISIBILITY.

* THESE STATIONS ARE NOT UNDER NWS QUALITY CONTROL. THEY DO NOT
   REPORT WEATHER SUCH AS PRECIPITATION OR FOG.

MTZ001>007-043-021100-
WEST OF THE DIVIDE
CITY           SKY/WX    TMP DP  RH WIND       PRES   REMARKS
KALISPELL      MOCLDY    19  16  88 CALM      29.92F
MISSOULA       PTCLDY    19  12  74 CALM      29.95S
BUTTE          PTCLDY     9   3  76 SE5       29.88F
MULLAN PASS    CLOUDY    23   5  46 SW6       29.81F WCI  16
* ANACONDA     CLEAR     19   5  54 S8         N/A   WCI   9
* ESSEX        N/A       14   8  77 SE1        N/A
* EUREKA APT   PTCLDY    23  10  57 CALM      29.92F
* HAMILTON APT PTCLDY    21  12  68 S3        29.90F
* LIBBY APT    CLEAR     21  16  81 CALM      29.94F
* LINCOLN      N/A        8   2  76 NE2        N/A
* LOOKOUT PASS N/A       21   9  60 S2         N/A
* POLSON       N/A       24  14  66 N/A        N/A
* RONAN APT    PTCLDY    25  19  78 N/A        N/A
* SEELEY LAKE  N/A        6   1  80 NE2        N/A
* THOMP F APT  PTCLDY    19  -8  29 NE4G9      N/A
$$

MTZ008-052>055-021100-
SOUTHWEST MONTANA
CITY           SKY/WX    TMP DP  RH WIND       PRES   REMARKS
BOZEMAN        CLEAR     12   7  80 S5        29.91F WCI   4
DILLON         CLEAR     18   3  52 S10       29.88F WCI   6
* W YELLOWSTON CLEAR     -6 -13  71 N/A        N/A
* THREE FORKS  CLEAR     12   7  80 N/A        N/A
* BOULDER HILL N/A       15   1  54 SW11       N/A   WCI   2
* MONIDA PASS  N/A       10  -5  50 SE3        N/A
* RAYNOLDS PAS N/A        4 -10  52 S5         N/A   WCI  -6
* WHITEHALL    N/A       12   3  67 NW7        N/A   WCI   1
* WISE RIVER   N/A        9   2  73 W3         N/A
$$

MTZ009>010-012-014-046-048-049-054-021100-
EAST SLOPES AND CENTRAL MONTANA
CITY           SKY/WX    TMP DP  RH WIND       PRES   REMARKS
CUT BANK       PTCLDY    25  10  53 NW12      29.79S WCI  14
GREAT FALLS    CLOUDY    30   9  41 SW23      29.80F WCI  17
HELENA         PTCLDY    18  10  71 CALM      29.90F
MALMSTROM AFB  PTCLDY    30  10  43 SW16G25   29.81F WCI  19
* CONRAD       PTCLDY    16  10  77 SE5        N/A   WCI   8
* DEARBORN     N/A       28   9  45 SE10G15    N/A   WCI  19
* EAST GLACIER N/A       25   4  40 W9G23      N/A   WCI  16
* MONARCH      N/A       26  -2  29 S12G19     N/A   WCI  15
* PENDROY      N/A       32  12  43 NW10       N/A   WCI  24
* ROGERS PASS  N/A       23   3  42 SE8G16     N/A   WCI  14
* SWEET GRASS  N/A       19  13  77 SW9        N/A   WCI   8
* WHITE SULPH  N/A       15   2  56 E6         N/A   WCI   6
$$

MTZ011-013-016-021-035-040-045-047-050-051-021100-
NORTH CENTRAL MONTANA
CITY           SKY/WX    TMP DP  RH WIND       PRES   REMARKS
HAVRE          CLEAR     12  10  92 CALM      29.84F
LEWISTOWN      MOCLDY    30  10  43 SW20      29.81F WCI  17
* CHINOOK      PTCLDY    18  10  71 E6        29.85F WCI  10
* FORT BENTON  CLEAR     18  12  77 N3        29.85F
* CHESTER      N/A       18  11  74 SE1        N/A
* DENTON       N/A       25   9  50 S14        N/A   WCI  13
* GEYSER       N/A       31   6  34 SW14G21    N/A   WCI  21
* JUDITH GAP   N/A       12   8  84 SE6        N/A   WCI   2
* LOMA         N/A       18  13  81 NE8        N/A   WCI   8
$$

MTZ017>020-022>027-061-062-021100-
NORTHEAST MONTANA
CITY           SKY/WX    TMP DP  RH WIND       PRES   REMARKS
GLASGOW        PTCLDY    16   9  74 SE16      29.95F WCI   1
GLENDIVE       CLEAR     10   7  88 S5        30.04F WCI   1
JORDAN         PTCLDY    18   9  68 S7        29.94F WCI   9
SIDNEY         CLEAR      9   1  70 SE7       30.11F WCI  -2
WOLF POINT     CLEAR     10   5  80 NE5       30.03F WCI   1
* BEAVER HILL  N/A       15   6  67 SE19G27    N/A   WCI  -2
* CIRCLE       N/A       19  11  71 N/A        N/A
* LINDSAY DVD  N/A        5   2  87 SE2        N/A
* NAVAJO       N/A       11   5  77 S11        N/A   WCI  -3
* POPLAR APT   CLEAR     18   9  68 SE9G16    30.03F WCI   7
* SACO         N/A       17   9  71 E13        N/A   WCI   3
$$

MTZ028>042-056>058-021100-
SOUTHCENTRAL AND SOUTHEAST MONTANA
CITY           SKY/WX    TMP DP  RH WIND       PRES   REMARKS
BAKER          CLEAR     12   5  73 S20       30.05F WCI  -6
BILLINGS       CLEAR     18   7  62 SW12      29.90F WCI   5
LIVINGSTON     CLEAR     18   5  57 NW16G21   29.86F WCI   3
MILES CITY     PTCLDY    16   7  67 SE16      30.00F WCI   1
* BIG TIMBER A CLEAR     16   5  62 SE3       29.89F
* FORSYTH APT  PTCLDY    16   9  74 E5        29.96F WCI   8
* LAUREL APT   CLEAR     25   5  42 S11        N/A   WCI  14
* ROUNDUP APT  PTCLDY    14   1  56 N/A        N/A
* ALZADA       N/A        5   2  87 E5         N/A   WCI  -5
* HYSHAM       N/A       21   3  45 SW4        N/A
* LAME DEER    N/A       16   6  64 S12G17     N/A   WCI   3
* REED POINT   N/A       10   8  92 W2         N/A
* ROSCOE HILL  N/A       17  -4  39 SW4        N/A
$$

REGIONAL REPORTS...DAKOTAS
CITY           SKY/WX    TMP DP  RH WIND       PRES   REMARKS
WILLISTON      PTCLDY     9   3  76 CALM      30.12F
DICKINSON      PTCLDY     7   1  76 SE9       30.10F WCI  -6
BEACH          CLEAR      9   7  91 S14       30.07F WCI  -7
CROSBY         CLEAR      3   0  87 S12       30.12F WCI -14
TIOGA          CLEAR      0   0 100 SW3       30.15F
WATFORD CITY   CLEAR     10   5  80 SE10      30.10F WCI  -4
BISMARCK       PTCLDY     3   1  91 E3        30.29F
GRAND FORKS    MOCLDY    -2  -8  75 S6        30.34F WCI -14
FARGO          PTCLDY     1  -2  87 SW6       30.39F WCI -11
BUFFALO SD     PTCLDY    12   5  73 SE13      30.01F WCI  -3
RAPID CITY     MOCLDY    16   9  74 S13       30.12F WCI   2
$$

REGIONAL REPORTS...WYOMING/IDAHO/WASHINGTON
CITY           SKY/WX    TMP DP  RH WIND       PRES   REMARKS
GILLETTE       CLEAR     16   9  74 S20       29.92F WCI  -1
SHERIDAN       PTCLDY     3   0  87 SW3       29.92F
CODY           CLEAR     12  10  92 CALM      29.89F
YELLOWSTONE LA PTCLDY    -8 -11  86 CALM      29.92F
SALMON         PTCLDY    16  10  77 CALM      29.93F
MULLAN PASS    CLOUDY    23   5  46 SW6       29.81S WCI  16
SAND POINT     PTCLDY    25  18  75 CALM      29.94F
SPOKANE        CLOUDY    30  16  56 NE5       29.90F WCI  25
$$

REGIONAL REPORTS...ALBERTA
CITY           SKY/WX    TMP DP  RH WIND       PRES   REMARKS
CALGARY        LGT SNOW  28  25  89 NW13G18   29.81R WCI  17
LETHBRIDGE     CLEAR     27  16  63 W15G22    29.80R WCI  15
MEDICINE HAT   CLEAR     25  14  63 SW15      29.76F WCI  13
EDMONTON       LGT SNOW  27  23  85 NW20G31   29.84R VSB 3    WCI  13
WATERTON GATE  N/A       28  14  56 SW18G25    N/A   WCI  15
CARDSTON       N/A       28  16  61 W12G17     N/A   WCI  18
MILK RIVER     N/A       14  10  84 W2         N/A
$$

REGIONAL REPORTS...SASKATCHEWAN
CITY           SKY/WX    TMP DP  RH WIND       PRES   REMARKS
SWIFT CURRENT  CLOUDY    16   9  74 S21G29    29.79F WCI  -1
MOOSE JAW      CLOUDY    14   9  80 S16       29.96F WCI  -2
REGINA         N/A        1  -2  87 SE17      30.01F WCI -19
VAL MARIE      N/A       16  10  77 S14        N/A   WCI   2
ASSINIBOIA     N/A       12   7  80 S9         N/A
CORONACH       N/A       10   7  88 SE13       N/A   WCI  -5

$$



USA.gov is the U.S. government's official web portal to all federal, state and local government web resources and services.